Location: ???????
(54.9996°N, 37.9529°E)
Time: 04:33:21
(UTC+00:00)

Daily predictions for brighter satellites

Satellite Brightness Start Highest point End
(mag) Time Altitude Azimuth Time Altitude Azimuth Time Altitude Azimuth
Cosmos 2221 3.0 00:03:42 35° WSW 00:04:50 43° WNW 00:08:55 10° N
COSMOS 2441 4.4 00:01:08 10° NNE 00:06:05 87° ESE 00:08:43 28° SSW
Cosmos 1766 Rocket 4.5 00:03:43 10° NNW 00:07:27 29° W 00:07:52 28° W
Cosmos 2333 Rocket 2.5 00:04:54 28° WSW 00:07:48 60° NW 00:13:25 10° NNE
Lacrosse 5 1.9 00:05:37 33° SW 00:07:55 70° SSE 00:13:01 10° ENE
NOSS 3-1 (C) 4.3 00:02:04 10° NW 00:08:37 65° NNE 00:16:50 10° ESE
ALOS 3.0 00:04:14 10° NNE 00:08:45 49° E 00:12:17 16° S
Cosmos 972 Rocket 4.0 00:07:57 29° SSW 00:10:45 78° WNW 00:15:52 10° NNE
Cosmos 44 Rocket 3.4 00:10:18 30° SSW 00:12:53 76° SE 00:18:04 10° NE
Cosmos 2360 Rocket 2.7 00:09:55 25° WSW 00:13:00 50° NW 00:18:30 10° NNE
Lacrosse 4 Rocket 3.3 00:15:03 12° WNW 00:17:45 21° NNW 00:20:53 10° NNE
Cosmos 2278 Rocket 2.1 00:13:14 10° NW 00:18:54 70° WSW 00:24:32 10° SSE
NOSS 3-4 (A) 3.3 00:16:26 26° SW 00:19:46 86° NW 00:26:08 10° NE
Cosmos 1743 3.9 00:16:46 10° NW 00:19:41 23° W 00:19:41 23° W
NOSS 3-4 (C) 3.3 00:16:29 26° SW 00:19:49 87° NW 00:26:11 10° NE
Sich 1 2.9 00:16:32 10° NNW 00:20:47 87° W 00:24:33 13° S
Cosmos 1733 3.3 00:18:23 10° N 00:22:00 69° ENE 00:25:35 10° SSE
IDEFIX/ARIANE 42P 3.0 00:17:59 10° N 00:22:58 48° WNW 00:25:43 25° SW
Cosmos 2322 Rocket 3.1 00:19:32 19° W 00:23:04 38° NW 00:28:19 10° NNE
NOSS 2-3 (C) 4.4 00:19:00 10° NW 00:24:20 64° SW 00:31:36 10° SSE
BlueWalker 3 2.3 00:23:38 32° WSW 00:24:42 41° SSW 00:28:19 10° SE
SAR-Lupe-1 4.0 00:21:32 10° NNE 00:25:11 89° ESE 00:26:59 28° SSW
MSX 4.1 00:21:50 10° N 00:27:29 56° WNW 00:31:06 22° SW
Cosmos 1743 Rocket 3.4 00:24:02 10° NNW 00:28:24 78° W 00:32:27 12° S
NOSS 2-3 (D) 4.4 00:24:11 10° NW 00:29:28 62° SW 00:36:40 10° SSE
Cosmos 2219 Rocket 2.4 00:27:22 24° SW 00:30:45 62° NW 00:36:20 10° NNE
Cosmos 1538 Rocket 4.2 00:26:59 20° SSW 00:30:48 74° ESE 00:36:09 10° NNE
ATLAS 3B R/B 3.7 00:23:39 10° NW 00:31:15 58° NNE 00:38:57 10° ESE
Cosmos 192 4.3 00:27:38 10° NNW 00:32:28 59° WSW 00:37:17 10° S
Gbstr 26 Del rocket 3.8 00:31:34 24° SSW 00:33:10 33° SSE 00:36:38 10° E
Cosmos 1536 3.1 00:30:17 10° NNW 00:34:00 43° W 00:35:46 25° SSW
Meteor 2-10 4.1 00:28:40 10° NNW 00:34:15 79° WSW 00:39:56 10° S
Cosmos 1420 Rocket 4.2 00:30:03 10° NNW 00:35:19 77° ENE 00:40:35 10° SSE
Cosmos 1633 Rocket 4.2 00:31:24 10° N 00:35:36 45° ENE 00:39:47 10° SE
SAR-Lupe-4 3.5 00:32:45 10° N 00:36:19 67° WNW 00:38:09 26° SSW
SWAS 4.4 00:32:18 10° NW 00:36:33 88° ENE 00:40:45 10° SE
COBE Rocket 4.3 00:32:35 10° N 00:37:04 44° WNW 00:39:40 22° SW
NOSS 7 (E) 4.2 00:34:12 10° WNW 00:37:12 54° SW 00:40:32 10° SSE
NOSS 2-2 (E) 4.2 00:33:12 10° WNW 00:37:17 42° SW 00:42:49 10° SSE
Cosmos 2056 Rocket 3.9 00:33:24 10° NNW 00:38:47 72° ENE 00:44:11 10° SE
Cosmos 1805 3.6 00:36:06 10° N 00:39:47 62° ENE 00:43:28 10° SSE
SL-16 R/B 3.7 00:35:17 11° W 00:39:52 27° NNW 00:44:41 10° NNE
GP-B 3.1 00:35:35 10° N 00:39:58 64° W 00:43:17 17° SSW
Meteor 1-28 Rocket 4.3 00:45:44 23° WSW 00:46:29 24° W 00:49:32 10° NW
Cosmos 1092 Rocket 4.1 00:42:22 10° S 00:48:30 80° E 00:54:41 10° NNE
ADEOS II 2.4 00:44:15 10° N 00:49:22 54° WNW 00:53:12 17° SW
CZ-2C R/B 3.5 00:45:33 10° NNE 00:50:33 47° E 00:55:31 10° S
Cosmos 1624 Rocket 4.1 00:46:03 10° NNW 00:51:20 84° ENE 00:56:33 10° SSE
FENGYUN 3A 3.8 00:46:00 10° N 00:51:22 60° WNW 00:55:38 16° SW
NOSS 2-2 (D) 4.1 00:47:36 10° WNW 00:51:36 42° SW 00:57:02 10° SSE
Meteor 1-19 Rocket 4.4 00:48:14 10° SSW 00:54:10 89° E 01:00:15 10° NNE
Cosmos 1726 3.1 00:51:39 10° NW 00:54:12 22° W 00:54:44 21° WSW
Cosmos 2026 Rocket 4.1 00:50:12 10° S 00:56:30 89° ESE 01:02:56 10° NNE
SL-16 R/B 3.1 00:51:35 12° SSW 00:56:46 36° W 01:02:28 10° NNW
Okean 1 3.3 00:54:37 18° SSW 00:57:19 59° WNW 01:01:07 10° N
CZ-2D R/B 3.0 00:55:44 10° N 01:00:30 35° WNW 01:04:21 15° WSW
ATLAS 5 CENTAUR R/B 2.0 00:56:46 10° NW 01:01:19 81° NE 01:07:01 10° SE
Cosmos 1461 3.6 00:59:18 10° WNW 01:02:32 25° WSW 01:05:44 10° S
Cosmos 923 Rocket 4.3 01:02:07 10° SSW 01:07:18 69° ESE 01:12:35 10° NNE
Envisat 3.2 01:02:18 10° NNE 01:07:25 76° ESE 01:12:30 10° S
Cosmos 1151 Rocket 3.0 01:04:11 10° SSW 01:08:30 79° WNW 01:12:51 10° N
RESURS DK-1 2.3 01:06:15 15° SW 01:09:35 86° NW 01:13:41 10° NE
Intercosmos 25 Rocket 3.1 01:15:25 10° NNW 01:18:36 62° W 01:22:40 10° S
Cosmos 1766 3.8 01:15:39 10° N 01:19:19 58° ENE 01:22:58 10° SSE
Cosmos 921 Rocket 4.2 01:15:29 10° S 01:19:30 42° ESE 01:23:36 10° NE
Cosmos 1943 Rocket 2.5 01:14:13 10° NW 01:19:35 45° WSW 01:24:56 10° S
ATLAS 2AS CENTAUR R/B 4.1 01:13:08 10° S 01:19:46 37° ESE 01:26:11 10° NE
Cosmos 1371 Rocket 4.0 01:14:55 10° NNW 01:20:04 61° WSW 01:25:15 10° S
Meteor 1-27 Rocket 3.9 01:14:48 10° SSW 01:20:30 59° WNW 01:26:08 10° N
Cosmos 1470 Rocket 3.8 01:17:04 10° N 01:21:28 77° ENE 01:25:53 10° SSE
Cosmos 1975 2.8 01:19:05 10° NNW 01:22:52 56° W 01:26:39 10° S
Thor Agena Rocket 3.7 01:18:16 10° NNE 01:23:21 74° ESE 01:28:23 10° SSW
NOAA 11 4.3 01:19:46 10° NNE 01:25:15 86° ESE 01:30:43 10° SSW
Meteor 2-4 Rocket 3.8 01:21:01 10° S 01:26:25 80° ESE 01:32:01 10° NNE
H-2A R/B 3.7 01:22:19 10° NNE 01:26:50 33° E 01:31:23 10° SSE
COSMOS 2428 3.1 01:22:41 12° WSW 01:27:56 51° NW 01:33:30 10° NNE
Cosmos 1340 2.5 01:24:59 10° NNW 01:28:21 52° W 01:31:41 10° S
Cosmos 2297 3.9 01:22:39 10° NNW 01:28:26 82° NE 01:34:13 10° SE
CZ-4 R/B 3.9 01:23:54 10° NNE 01:28:40 65° WNW 01:33:19 10° SSW
CZ-2C R/B 4.5 01:31:37 10° WSW 01:33:57 13° W 01:36:17 10° NW
Cosmos 1484 Rocket 4.4 01:31:19 10° NNE 01:34:38 32° E 01:37:54 10° SSE
CZ-2C R/B 4.2 01:30:27 10° N 01:34:41 28° WNW 01:39:04 10° WSW
Cosmos 1666 Rocket 3.9 01:30:40 10° NNW 01:34:58 47° W 01:39:14 10° SSW
S3M 4.1 01:29:31 10° N 01:35:42 83° ENE 01:41:55 10° SSE
Cosmos 2237 Rocket 2.3 01:30:03 10° SW 01:35:44 84° WNW 01:41:29 10° NNE
NOSS 3-1 (A) 4.1 01:29:08 10° NW 01:35:58 86° NE 01:44:26 10° SE
Cosmos 1980 3.7 01:31:17 10° SW 01:36:58 80° NW 01:42:40 10° NNE
Cosmos 2369 Rocket 2.5 01:32:05 10° NNW 01:37:44 75° NE 01:43:20 10° SE
Cosmos 1626 2.2 01:36:09 10° S 01:39:26 66° E 01:42:44 10° NNE
BREEZE-M DEB (TANK) 1.9 01:37:59 10° WSW 01:40:11 36° SSE 01:42:08 10° E
Resurs 1-4 Rocket 3.8 01:37:30 10° N 01:41:12 20° NW 01:44:54 10° W
USA 215 3.5 01:37:35 10° E 01:44:08 77° N 01:50:41 10° W
ALOS 3.3 01:41:48 10° N 01:45:49 30° WNW 01:49:49 10° WSW
Cosmos 2112 Rocket 4.1 01:41:30 10° SSW 01:46:51 87° ESE 01:52:15 10° NNE
Cosmos 1933 Rocket 3.8 01:44:25 10° N 01:48:50 78° ENE 01:53:10 10° SSE
DMSP B5D2-2 4.3 01:44:32 10° S 01:49:34 48° W 01:54:37 10° NNW
YAOGAN 11 4.3 01:45:14 10° SSE 01:49:44 87° ENE 01:54:19 10° NNW
Lacrosse 5 2.1 01:45:53 10° W 01:51:00 71° N 01:56:08 10° E
Cosmos 2266 Rocket 4.3 01:45:46 10° S 01:51:48 72° E 01:57:49 10° NNE
